Location: Waco, TX
(31.5480°N, 97.1670°W)
Time: 04:00:17
(UTC-06:00)

ISS - Pass Details

Date: 23 November 2017
Orbit: 401 x 407 km, 51.6° (Epoch: 18 November)

Event Time Altitude Azimuth Distance (km) Brightness Sun altitude
Rises 20:03:18 0° 241° (WSW) 2,311 0.9 -33.1°
Enters shadow 20:04:54 - 247° (WSW) 1,672 0.1 -33.4°
Reaches altitude 10° 20:05:28 10° 250° (WSW) 1,454 - -33.6°
Maximum altitude 20:08:30 36° 319° (NW) 663 - -34.2°
Drops below altitude 10° 20:11:33 10° 28° (NNE) 1,457 - -34.8°
Sets 20:13:44 0° 37° (NE) 2,318 - -35.3°
